Regional Weather Roundup
Issued by NWS

Home | Current Version | Previous Version | Graphics & Text | Print | Product List | Glossary On
Versions: 1 2 3 4 5 6 7 8 9 10 11 12 13 14 15 16 17 18 19 20 21 22 23 24 25 26 27 28 29 30 31 32 33 34 35 36 37 38 39 40 41 42 43 44 45 46 47 48 49 50
078
ASUS45 KCYS 260910
RWRWY

WYOMING REGIONAL WEATHER ROUNDUP
NATIONAL WEATHER SERVICE CHEYENNE WY
300 AM MDT FRI MAY 26 2017

NOTE:  "FAIR" INDICATES FEW OR NO CLOUDS BELOW 12,000 FEET
WITH NO SIGNIFICANT WEATHER AND/OR OBSTRUCTIONS TO VISIBILITY.

WYZ001-261000-
YELLOWSTONE NATIONAL PARK

CITY           SKY/WX    TMP DP  RH WIND       PRES   REMARKS
LK YELLOWSTONE   N/A     33  28  81 CALM      29.94S
W YELLOWSTONE  NOT AVBL

$$
WYZ002>013-054>058-071-098>099-261000-
NORTHERN WYOMING

CITY           SKY/WX    TMP DP  RH WIND       PRES   REMARKS
JACKSON        FAIR      36  28  75 NE3       29.88S
CODY           FAIR      44  33  65 CALM      29.94S
GREYBULL       CLOUDY    51  28  41 NW10      29.88S
WORLAND        CLOUDY    48  36  63 SW7       29.91R
SHERIDAN       FAIR      36  31  82 CALM      29.91R
BUFFALO        CLOUDY    45  34  65 S5        29.93S
GILLETTE       FAIR      36  34  92 W8        29.91R WCI  30
HULETT         FAIR      43  34  70 SW7       29.91R
NEWCASTLE      FAIR      37  32  81 CALM      29.93R

$$
WYZ014>020-022>026-101>103-261000-
CENTRAL WYOMING

CITY           SKY/WX    TMP DP  RH WIND       PRES   REMARKS
BIG PINEY      MOCLDY    34  30  85 W6        29.92R WCI  29
PINEDALE       FAIR      30  27  86 N10       29.92S WCI  21
DUBOIS         CLOUDY    36  30  80 SE13G18   29.92S WCI  27
LANDER         CLOUDY    45  35  68 W6        29.92F
RIVERTON       MOCLDY    45  36  70 E7        29.93F
CASPER         MOCLDY    44  37  76 E8        29.94S
DOUGLAS        CLOUDY    46  39  76 NW3       29.95S

$$
WYZ021-027>030-104>119-261000-
SOUTHERN WYOMING

CITY           SKY/WX    TMP DP  RH WIND       PRES   REMARKS
EVANSTON       CLOUDY    44  27  51 E10       29.85F
KEMMERER         N/A     39  28  65 N3        29.90F
FORT BRIDGER   CLOUDY    43  25  49 SE9       29.90
ROCK SPRINGS   MOCLDY    39  31  72 NE12      29.93F WCI  32
DIXON            N/A     39  35  85 E3        29.95S
RAWLINS        FAIR      36  31  82 N6        29.94S WCI  31
SARATOGA       FAIR      41  36  81 SE8       29.94S
LARAMIE        FAIR      34  31  88 SE8       29.96R WCI  27
CHEYENNE       FAIR      39  35  86 NW6       29.97R WCI  35
TORRINGTON     FAIR      43  36  76 W7        29.93R

$$




USA.gov is the U.S. government's official web portal to all federal, state and local government web resources and services.